Regional Weather Roundup
Issued by NWS

Home | Current Version | Previous Version | Graphics & Text | Print | Product List | Glossary On
Versions: 1 2 3 4 5 6 7 8 9 10 11 12 13 14 15 16 17 18 19 20 21 22 23 24 25 26 27
000
ASUS45 KBOI 161110
RWRID
WEATHER ROUNDUP FOR IDAHO
NATIONAL WEATHER SERVICE BOISE ID
500 AM MDT WED APR 16 2014

NOTE: "FAIR" INDICATES FEW OR NO CLOUDS BELOW 12000 FEET
WITH NO SIGNIFICANT WEATHER AND/OR OBSTRUCTIONS TO VISIBILITY

IDZ012-014-161200-
SOUTHWEST IDAHO


CITY           SKY/WX    TMP DP  RH WIND       PRES   REMARKS
BOISE          PTCLDY    35  21  56 CALM      30.03R
CALDWELL       PTCLDY    37  19  48 W7        30.06R WCI  32
MOUNTAIN HOME  MOCLDY    35  17  48 NW5       30.02R WCI  30
$$

IDZ016-017-161200-
SOUTHCENTRAL IDAHO


CITY           SKY/WX    TMP DP  RH WIND       PRES   REMARKS
BURLEY         CLOUDY    36  23  59 CALM      30.00R
JEROME         CLOUDY    37  20  50 SW5       30.00S WCI  33
TWIN FALLS     CLOUDY    41  16  36 SW13      30.00S
$$

IDZ019>023-161200-
SOUTHEAST IDAHO


CITY           SKY/WX    TMP DP  RH WIND       PRES   REMARKS
IDAHO FALLS    MOCLDY    31  15  52 N6        29.99F WCI  25
POCATELLO      CLEAR     31  19  61 CALM      30.01S
REXBURG        PTCLDY    29  16  58 CALM      29.99F
$$

IDZ006-010-011-018-031-032-161200-
CENTRAL IDAHO MOUNTAINS


CITY           SKY/WX    TMP DP  RH WIND       PRES   REMARKS
MCCALL         MOCLDY    26  19  74 S3        30.00S
HAILEY         CLOUDY    34  10  37 NW9       30.00S WCI  26
STANLEY          N/A     19  10  68 CALM      30.02R
SALMON         PTCLDY    28  18  64 CALM      30.02R
CHALLIS        MOCLDY    27  14  58 CALM      30.02R
$$

IDZ002-004-006-007-026-161200-
NORTHERN IDAHO


CITY           SKY/WX    TMP DP  RH WIND       PRES   REMARKS
LEWISTON       PTCLDY    44  25  47 SW8       30.03S
LOWELL           N/A     38  36  92 CALM      30.10R
COEUR D`ALENE  MOCLDY    39  32  75 S13       29.98R WCI  32
MULLAN PASS    PTCLDY    26  22  84 VRB6      29.91S WCI  19
$$



USA.gov is the U.S. government's official web portal to all federal, state and local government web resources and services.